Flag for Germany Weather past 2 weeks in Hamburg, Hamburg, Germany

Now
63 °F

Scattered clouds.


Feels Like: 63 °F
Forecast: 46 / 60 °F
Wind: 13 mph from Southwest

Location: Hamburg-Fuhlsbuettel

Current Time: May 22, 2015 at 1:58:35 PM

Latest Report: May 22, 2015 at 1:20 PM


Visibility: N/A

Pressure: 30.24 "Hg

Humidity: 52%

Dew point: 45 °F

Location of HamburgLocation

Historic Weather in Hamburg — Graph

°F

Hamburg temperature yesterday

Maximum temperature yesterday: 57 °F (at 4:50 PM)
Minimum temperature yesterday: 41 °F (at 1:20 AM)
Average temperature yesterday: 49 °F

Past Weeks' High & Low Weather Summary

 TemperatureHumidityPressure
High73 °F (May 11, 3:20 PM)100% (May 8, 2:50 AM)30.33 "Hg (May 8, 2:50 AM)
Low39 °F (May 8, 2:50 AM)38% (May 10, 7:20 PM)29.56 "Hg (May 19, 2:20 AM)
Average52 °F75%30.01 "Hg
* Reported May 7 12:20 PM — May 22 12:50 PM, Hamburg, Weather by CustomWeather, © 2015

Note: Actual official high and low records may vary slightly from our data, if they occured in-between our weather recording intervals... More about our weather records

Advertising

Hamburg weather history for previous 24 hours

 ConditionsComfort  
Time TempWeatherWind HumidityBarometerVisibility
12:50 PM
Fri, May 22
63 °FScattered clouds.8 mph59%30.24 "HgN/A
12:20 PM63 °FScattered clouds.9 mph59%30.24 "HgN/A
11:50 AM61 °FScattered clouds.7 mph59%30.27 "HgN/A
11:20 AM59 °FScattered clouds.7 mph63%30.27 "HgN/A
10:50 AM59 °FScattered clouds.9 mph63%30.27 "HgN/A
10:20 AM57 °FScattered clouds.9 mph67%30.27 "HgN/A
9:50 AM55 °FScattered clouds.7 mph72%30.27 "HgN/A
9:20 AM55 °FScattered clouds.6 mph67%30.30 "HgN/A
8:50 AM54 °FScattered clouds.7 mph77%30.30 "HgN/A
8:20 AM54 °FPassing clouds.6 mph77%30.30 "HgN/A
7:50 AM52 °FPassing clouds.5 mph88%30.30 "HgN/A
7:20 AM50 °FPassing clouds.3 mph94%30.27 "HgN/A
6:50 AM48 °FSunny.5 mph94%30.27 "Hg10 mi
6:20 AM45 °FPassing clouds.3 mph100%30.27 "HgN/A
5:50 AM45 °FFog.3 mph93%30.27 "HgN/A
5:20 AM45 °FFog.3 mph93%30.27 "HgN/A
4:50 AM43 °FQuite cool.2 mph100%30.27 "HgN/A
4:20 AM43 °FFog.3 mph100%30.27 "HgN/A
3:50 AM43 °FFog.1 mph100%30.27 "HgN/A
3:20 AM45 °FFog.3 mph87%30.27 "HgN/A
2:50 AM46 °FPassing clouds.5 mph87%30.27 "HgN/A
2:20 AM46 °FPassing clouds.3 mph93%30.27 "HgN/A
1:50 AM48 °FPassing clouds.3 mph87%30.27 "HgN/A
1:20 AM46 °FPartly cloudy.2 mph87%30.27 "HgN/A
12:50 AM46 °FPassing clouds.1 mph87%30.27 "HgN/A
12:20 AM46 °FPassing clouds.1 mph93%30.27 "HgN/A
11:20 PM
Thu, May 21
46 °FClear.2 mph87%30.27 "Hg10 mi
10:50 PM46 °FClear.2 mph93%30.27 "Hg10 mi
10:20 PM46 °FSunny.1 mph87%30.27 "Hg10 mi
9:50 PM48 °FSunny.3 mph82%30.27 "Hg10 mi
9:20 PM50 °FSunny.2 mph76%30.27 "Hg10 mi
8:50 PM52 °FSunny.6 mph67%30.24 "Hg10 mi
8:20 PM54 °FSunny.7 mph63%30.24 "Hg10 mi
7:50 PM54 °FPassing clouds.8 mph63%30.24 "HgN/A
7:20 PM55 °FPassing clouds.12 mph59%30.24 "HgN/A
6:50 PM55 °FPassing clouds.14 mph63%30.24 "HgN/A
6:20 PM55 °FScattered clouds.12 mph63%30.24 "HgN/A
5:50 PM55 °FScattered clouds.12 mph59%30.24 "HgN/A
5:20 PM55 °FPartly sunny.14 mph63%30.24 "HgN/A
4:50 PM57 °FPartly sunny.13 mph63%30.21 "HgN/A
4:20 PM55 °FPartly sunny.14 mph63%30.21 "HgN/A
3:50 PM55 °FPartly sunny.13 mph67%30.21 "HgN/A
3:20 PM55 °FScattered clouds.9 mph72%30.21 "HgN/A
2:50 PM54 °FPartly sunny.5 mph77%30.21 "HgN/A
2:20 PM52 °FSprinkles. Scattered clouds.12 mph82%30.21 "HgN/A
1:50 PM55 °FScattered clouds.8 mph72%30.21 "HgN/A
1:20 PM52 °FPartly sunny.16 mph72%30.21 "HgN/A
Weather by CustomWeather, © 2015

See weather overviewHow to use our weather pages